loading
|

STARLINK-31823, 59794

Orbit data source: Space-Track

STARLINK-31823, 59794 is a payload satellite owned by SpaceX/Seattle (US) in LEO that was launched on Sat, 18 May 2024 UTC via an FALCON 9 launch vehicle from the Air Force Eastern Test Range (AFETR). Payloads include a variety of satellites, spacecraft, and rockets equipped with specific instruments for various scientific and technological missions. These include communications satellites like Starlink; space stations such as the ISS; scientific satellites like the Hubble; Earth observation satellites from companies like Planet Labs, Umbra, and HawkEye 360; GPS; miniature CubeSats for education and research; and military/defense satellites.

Loading next visibility...
Loading greatness...
STARLINK-31823 details
Identifier
59794, 2024-093N
Orbit
LEO
Last TLE update7 hours ago
Origin
Flag of USSpaceX/Seattle (US)
ManufacturerSpaceX/Seattle
Mission statusOperational
MissionUnknown
Bus & MotorSTARLINK V2M, Unknown motor
Mass750 kg wet, ~700 kg dry
Launch date (UTC)
2024-05-18 (4 months ago)
Launch vehicle
FALCON 9
Launch site
Air Force Eastern Test Range (AFETR)
Object type
Payload
Rocket body
Debris
Radar Cross SectionLarge (>1 m²)

Expand to show TLE details & history

TLE from 7 hours ago
0 STARLINK-31823
1 59794U 24093N   24261.64238105 -.00002304  00000-0 -47897-4 0  9996
2 59794  43.0029  26.0614 0000364 159.6002 200.4870 15.40709845 20195
Epoch: 2024-09-17T15:25Z
Definitive object data (Epoch: 2024-09-17T15:25:01.722Z)
Latitude0.00003°
Longitude157.75015°
Altitude444.02 km
Speed7.647 km/s
True Right ascension01h 44m 14s
True Declination0° 00' 00"
Sunlit
Object was in full shadow at TLE epoch
Predictive object data (real-time)
Latitude41.24264°
Longitude-134.61234°
Altitude446.727 km
Speed7.65 km/s
Apparent Right ascension04h 33m 21s
Apparent Declination2° 34' 47"
Sunlit
Object is in daylight
Predictive observer data (real-time)
Local Sidereal Time14:46:33
Azimuth323.527° NNW
Elevation-40.968°
Doppler factor1
Orbital elements
Apogee446.217 km
Perigee445.72 km
Semi-major axis6,824.106 km
Eccentricity0.0000364
Inclination43.0029°
RAAN26.0614°
Arg. of periapsis159.6002°
True anomaly200.48554°
Mean anomaly200.487°
Eccentric anomaly200.48627°
Mean motion3.85012 °/min
BSTAR-0.000047897
Period93.5 mins
No data available

STARLINK-31823 Visibility forecast

Observer location: 39.9160978°, -105.1181434

STARLINK-31823 is not visible in the next 10 days
Span
Click to sort rows by Start time (UTC) header in descending order
Start Az.
Max El. time (UTC)
Max El. Az.
Max El.
End time (UTC)
End Az.